Vilalleons





Hora UTC 07:25
Temperatura 17.3 ºC
Humedad 92.0 %
Presión 1020.8 hPa
Pluja 0.0 mm
Velocidad viento 0.0 km/h
Dirección viento NW

Datos diarios 2022-07-07



Hora UTC (invierno +1h; verano +2h)
Temperatura (ºC) Humedad (%) Presión (hPa) Velocidad viento (km/h) Precipitación (mm)
Hora UTC Aire Humedad Presión Vel. Dir. Vel. Max Dir. Intent. máx 5 min.
00:05 17.6 88.0 1020.0 0.0 SW 0.0 0.0
00:10 17.4 88.0 1020.0 0.0 SW 3.2 0.0
00:15 17.3 88.0 1020.2 1.6 SW 3.2 0.0
00:20 17.2 89.0 1020.1 1.6 SW 3.2 0.0
00:25 17.0 89.0 1020.3 0.0 SW 3.2 0.0
00:30 16.9 89.0 1020.3 0.0 SW 1.6 0.0
00:35 16.8 90.0 1020.3 0.0 SW 0.0 0.0
00:40 16.6 90.0 1020.3 0.0 SW 0.0 0.0
00:45 16.5 90.0 1020.3 0.0 SW 0.0 0.0
00:50 16.4 90.0 1020.4 0.0 SW 0.0 0.0
00:55 16.3 91.0 1020.3 0.0 SW 0.0 0.0
01:00 16.2 91.0 1020.3 0.0 SW 0.0 0.0
01:05 16.2 92.0 1020.3 0.0 SW 0.0 0.0
01:10 16.2 92.0 1020.4 0.0 SW 0.0 0.0
01:15 16.2 92.0 1020.4 0.0 SW 0.0 0.0
01:20 16.3 93.0 1020.4 0.0 SW 0.0 0.0
01:25 16.4 93.0 1020.3 0.0 SW 0.0 0.0
01:30 16.4 93.0 1020.3 0.0 SW 0.0 0.0
01:35 16.6 93.0 1020.3 0.0 SW 0.0 0.0
01:40 16.7 93.0 1020.4 0.0 N 3.2 0.0
01:45 16.7 93.0 1020.3 0.0 N 3.2 0.0
01:50 16.8 93.0 1020.4 0.0 N 1.6 0.0
01:55 16.7 92.0 1020.5 0.0 N 1.6 0.0
02:00 16.7 92.0 1020.5 0.0 N 1.6 0.0
02:05 16.6 92.0 1020.2 0.0 N 1.6 0.0
02:10 16.5 92.0 1020.2 0.0 N 1.6 0.0
02:15 16.4 92.0 1020.1 0.0 N 0.0 0.0
02:20 16.3 91.0 1020.0 0.0 N 0.0 0.0
02:25 16.2 92.0 1020.0 1.6 N 1.6 0.0
02:30 16.1 92.0 1020.2 0.0 N 1.6 0.0
02:35 16.1 92.0 1020.1 0.0 N 1.6 0.0
02:40 16.0 93.0 1020.0 1.6 N 3.2 0.0
02:45 16.0 93.0 1020.0 1.6 E 4.8 0.0
02:50 15.9 93.0 1019.9 0.0 E 4.8 0.0
02:55 15.9 93.0 1020.0 1.6 E 1.6 0.0
03:00 15.9 93.0 1020.1 0.0 E 1.6 0.0
03:05 15.8 93.0 1019.9 1.6 E 3.2 0.0
03:10 15.8 93.0 1020.0 0.0 E 4.8 0.0
03:15 15.8 93.0 1020.0 0.0 E 3.2 0.0
03:20 15.7 93.0 1019.8 0.0 E 3.2 0.0
03:25 15.7 93.0 1019.8 0.0 E 3.2 0.0
03:30 15.8 93.0 1020.0 3.2 N 4.8 0.0
03:35 15.7 92.0 1020.0 1.6 N 4.8 0.0
03:40 15.6 92.0 1019.9 1.6 N 3.2 0.0
03:45 15.4 92.0 1019.9 1.6 N 3.2 0.0
03:50 15.3 93.0 1019.9 0.0 N 1.6 0.0
03:55 15.3 93.0 1019.9 3.2 N 3.2 0.0
04:00 15.1 93.0 1019.9 3.2 NE 4.8 0.0
04:05 15.0 93.0 1019.8 1.6 ENE 4.8 0.0
04:10 14.9 93.0 1019.9 0.0 ENE 4.8 0.0
04:15 14.9 93.0 1019.9 0.0 ENE 1.6 0.0
04:20 14.9 93.0 1020.0 1.6 ENE 1.6 0.0
04:25 14.8 93.0 1019.9 0.0 ENE 3.2 0.0
04:30 14.7 93.0 1019.8 0.0 ENE 1.6 0.0
04:35 14.7 93.0 1019.8 0.0 ENE 0.0 0.0
04:40 14.6 93.0 1020.0 0.0 ENE 0.0 0.0
04:45 14.6 94.0 1020.3 0.0 ENE 0.0 0.0
04:50 14.5 94.0 1020.2 0.0 ENE 0.0 0.0
04:55 14.5 94.0 1020.4 0.0 ENE 0.0 0.0
05:00 14.4 94.0 1020.3 0.0 ENE 0.0 0.0
05:05 14.4 94.0 1020.4 0.0 ENE 0.0 0.0
05:10 14.5 94.0 1020.3 0.0 ENE 0.0 0.0
05:15 14.5 94.0 1020.5 0.0 ENE 0.0 0.0
05:20 14.5 94.0 1020.5 0.0 ENE 0.0 0.0
05:25 14.6 95.0 1020.5 0.0 ENE 0.0 0.0
05:30 14.7 95.0 1020.7 0.0 ENE 0.0 0.0
05:35 14.8 95.0 1020.7 0.0 ENE 0.0 0.0
05:40 15.0 96.0 1020.7 0.0 ENE 0.0 0.0
05:45 15.2 96.0 1020.6 0.0 ENE 0.0 0.0
05:50 15.3 96.0 1020.6 0.0 ENE 0.0 0.0
05:55 15.5 96.0 1020.5 0.0 ENE 0.0 0.0
06:00 15.7 96.0 1020.7 0.0 ENE 0.0 0.0
06:05 15.8 96.0 1020.7 0.0 ENE 0.0 0.0
06:10 16.0 96.0 1020.7 0.0 ENE 0.0 0.0
06:15 16.2 96.0 1020.7 0.0 ENE 0.0 0.0
06:20 16.3 96.0 1020.7 0.0 ENE 0.0 0.0
06:25 16.4 96.0 1020.7 0.0 ENE 0.0 0.0
06:30 16.5 96.0 1020.8 0.0 ENE 0.0 0.0
06:35 16.6 95.0 1020.8 0.0 ENE 0.0 0.0
06:40 16.6 95.0 1020.7 0.0 E 3.2 0.0
06:45 16.7 95.0 1020.5 0.0 E 3.2 0.0
06:50 16.7 94.0 1020.6 0.0 E 3.2 0.0
06:55 16.8 94.0 1020.7 0.0 E 4.8 0.0
07:00 16.9 94.0 1020.7 4.8 NNW 4.8 0.0
07:05 16.9 93.0 1020.9 1.6 N 4.8 0.0
07:10 17.1 93.0 1020.8 0.0 N 4.8 0.0
07:15 17.2 94.0 1020.7 3.2 NW 4.8 0.0
07:20 17.3 92.0 1020.7 1.6 NW 4.8 0.0
07:25 17.3 92.0 1020.8 0.0 NW 3.2 0.0
Máxima 17.6 96.0 1020.9 4.8 NNW 4.8 0.0
Mínima 14.4 88.0 1019.8
Total 0.0